TAIP52 YCBG-YCBG

Flight info

Callsign TAIP52
Flight time 0h 2m
Altitude 1000
Route YRKB DCT
Aircraft EC35/L-SDFGRY/C

Departure

Time 2026-05-08 05:18
Airport Cambridge Aerodrome (YCBG)

Arrival

Time 2026-05-08 05:20
Airport Cambridge Aerodrome (YCBG)
Time Latitude Longitude Altitude Speed Heading
2026-05-08 05:03 -42.82999 147.47688 51 ft 0 kts 180°
2026-05-08 05:14 -42.82999 147.47689 52 ft 0 kts 182°
2026-05-08 05:14 -42.82989 147.47700 60 ft 8 kts 56°
2026-05-08 05:15 -42.82884 147.47702 56 ft 18 kts 352°
2026-05-08 05:15 -42.82761 147.47693 77 ft 21 kts 342°
2026-05-08 05:15 -42.82574 147.47645 76 ft 35 kts 328°
2026-05-08 05:15 -42.82305 147.47507 109 ft 45 kts 304°
2026-05-08 05:16 -42.82182 147.47219 163 ft 21 kts 198°
2026-05-08 05:16 -42.82320 147.47347 151 ft 59 kts 131°
2026-05-08 05:16 -42.82725 147.47837 230 ft 88 kts 142°
2026-05-08 05:16 -42.83264 147.48309 374 ft 97 kts 149°
2026-05-08 05:17 -42.83931 147.48603 396 ft 105 kts 171°
2026-05-08 05:17 -42.84713 147.48682 373 ft 118 kts 177°
2026-05-08 05:17 -42.85538 147.48688 401 ft 117 kts 180°
2026-05-08 05:17 -42.86300 147.48630 627 ft 101 kts 186°
2026-05-08 05:18 -42.86942 147.48519 941 ft 86 kts 196°
2026-05-08 05:18 -42.87475 147.48301 1236 ft 77 kts 206°
2026-05-08 05:18 -42.87940 147.47981 1465 ft 74 kts 215°
2026-05-08 05:18 -42.88374 147.47568 1531 ft 77 kts 218°
2026-05-08 05:19 -42.88783 147.47101 1462 ft 76 kts 219°
2026-05-08 05:19 -42.89215 147.46734 1542 ft 71 kts 205°
2026-05-08 05:19 -42.89656 147.46554 1537 ft 60 kts 204°
2026-05-08 05:19 -42.90036 147.46415 1548 ft 53 kts 204°
2026-05-08 05:20 -42.90221 147.46314 1508 ft 50 kts 211°
2026-05-08 05:20 -42.90401 147.46135 1497 ft 49 kts 218°
2026-05-08 05:20 -42.90716 147.45744 697 ft 75 kts 220°
2026-05-08 05:20 -42.91005 147.45359 271 ft 44 kts 275°
2026-05-08 05:21 -42.90958 147.45111 39 ft 6 kts 313°
2026-05-08 05:21 -42.90937 147.45055 192 ft 20 kts 315°
2026-05-08 05:21 -42.90752 147.44896 406 ft 42 kts 316°
2026-05-08 05:21 -42.90438 147.44602 657 ft 69 kts 319°
2026-05-08 05:22 -42.89968 147.44203 911 ft 90 kts 318°
2026-05-08 05:22 -42.89343 147.43860 1079 ft 105 kts 340°
2026-05-08 05:22 -42.88616 147.44008 1328 ft 106 kts 24°
2026-05-08 05:22 -42.88226 147.44747 1512 ft 88 kts 100°
2026-05-08 05:23 -42.88488 147.45214 1492 ft 60 kts 177°
2026-05-08 05:23 -42.88899 147.45308 1515 ft 60 kts 183°
2026-05-08 05:23 -42.89321 147.45362 1520 ft 61 kts 182°
2026-05-08 05:23 -42.89742 147.45447 1502 ft 62 kts 180°
2026-05-08 05:24 -42.90158 147.45586 1268 ft 61 kts 178°
2026-05-08 05:24 -42.90568 147.45649 599 ft 58 kts 191°
2026-05-08 05:24 -42.90935 147.45532 107 ft 38 kts 191°
2026-05-08 05:24 -42.90984 147.45517 49 ft 1 kts 192°
2026-05-08 05:25 -42.91041 147.45513 50 ft 25 kts 191°
2026-05-08 05:25 -42.91334 147.45437 128 ft 52 kts 195°
2026-05-08 05:25 -42.91683 147.45397 293 ft 51 kts 178°
2026-05-08 05:25 -42.91898 147.45843 419 ft 67 kts 118°
2026-05-08 05:26 -42.91739 147.46466 608 ft 76 kts 64°
2026-05-08 05:26 -42.91279 147.46781 863 ft 75 kts
2026-05-08 05:26 -42.90761 147.46901 1135 ft 76 kts
2026-05-08 05:26 -42.90243 147.47012 1446 ft 77 kts 358°
2026-05-08 05:27 -42.89768 147.46823 1540 ft 67 kts 287°
2026-05-08 05:27 -42.89813 147.46337 1545 ft 55 kts 214°
2026-05-08 05:27 -42.90176 147.46078 957 ft 61 kts 205°
2026-05-08 05:27 -42.90527 147.45824 381 ft 53 kts 212°
2026-05-08 05:28 -42.90699 147.45643 106 ft 2 kts 210°
2026-05-08 05:28 -42.90693 147.45643 101 ft 6 kts 210°
2026-05-08 05:28 -42.90776 147.45645 91 ft 14 kts 167°
2026-05-08 05:28 -42.90835 147.45638 70 ft 5 kts 229°
2026-05-08 05:29 -42.90848 147.45616 58 ft 1 kts 226°
2026-05-08 05:29 -42.90856 147.45611 54 ft 5 kts 226°
2026-05-08 05:29 -42.90927 147.45508 57 ft 29 kts 225°
2026-05-08 05:29 -42.91148 147.45199 108 ft 56 kts 221°
2026-05-08 05:30 -42.91426 147.44828 221 ft 54 kts 212°
2026-05-08 05:30 -42.91774 147.44909 360 ft 59 kts 147°
2026-05-08 05:30 -42.91839 147.45495 491 ft 73 kts 82°
2026-05-08 05:30 -42.91547 147.46070 659 ft 73 kts 66°
2026-05-08 05:31 -42.91230 147.46599 883 ft 72 kts 63°
2026-05-08 05:31 -42.90924 147.47169 1096 ft 76 kts 63°
2026-05-08 05:31 -42.90642 147.47814 1302 ft 83 kts 65°
2026-05-08 05:31 -42.90154 147.48200 1426 ft 82 kts 346°
2026-05-08 05:32 -42.89831 147.47796 1479 ft 61 kts 254°
2026-05-08 05:32 -42.90016 147.47269 1474 ft 65 kts 231°
2026-05-08 05:32 -42.90235 147.46785 1501 ft 56 kts 232°
2026-05-08 05:32 -42.90434 147.46371 1504 ft 49 kts 233°
2026-05-08 05:33 -42.90600 147.45985 1061 ft 46 kts 230°
2026-05-08 05:33 -42.90803 147.45677 476 ft 42 kts 253°
2026-05-08 05:33 -42.90866 147.45399 60 ft 7 kts 291°
2026-05-08 05:33 -42.90864 147.45408 85 ft 2 kts 287°
2026-05-08 05:34 -42.90809 147.45320 418 ft 38 kts 285°
2026-05-08 05:34 -42.90535 147.44788 669 ft 86 kts 290°
2026-05-08 05:34 -42.90149 147.44125 930 ft 90 kts 293°
2026-05-08 05:34 -42.89694 147.43561 1183 ft 88 kts 333°
2026-05-08 05:35 -42.89147 147.43274 1320 ft 80 kts 327°
2026-05-08 05:35 -42.88793 147.42802 1395 ft 64 kts 280°
2026-05-08 05:35 -42.88833 147.42310 1458 ft 49 kts 227°
2026-05-08 05:35 -42.89175 147.42254 1449 ft 61 kts 172°
2026-05-08 05:36 -42.89456 147.42776 1460 ft 73 kts 129°
2026-05-08 05:36 -42.89651 147.43393 1472 ft 69 kts 131°
2026-05-08 05:36 -42.89829 147.43975 1507 ft 63 kts 135°
2026-05-08 05:36 -42.90079 147.44428 1532 ft 57 kts 154°
2026-05-08 05:37 -42.90402 147.44773 1290 ft 62 kts 149°
2026-05-08 05:37 -42.90693 147.45199 662 ft 62 kts 137°
2026-05-08 05:37 -42.91017 147.45546 138 ft 55 kts 123°
2026-05-08 05:37 -42.91072 147.45681 48 ft 3 kts 123°
2026-05-08 05:38 -42.91061 147.45671 47 ft 2 kts 122°
2026-05-08 05:38 -42.91057 147.45669 49 ft 1 kts 122°
2026-05-08 05:38 -42.91056 147.45663 51 ft 2 kts 123°
2026-05-08 05:38 -42.91097 147.45716 57 ft 33 kts 123°
2026-05-08 05:39 -42.91272 147.46251 60 ft 80 kts 114°
2026-05-08 05:39 -42.91079 147.47092 61 ft 112 kts 45°
2026-05-08 05:39 -42.90383 147.47639 172 ft 119 kts 26°
2026-05-08 05:39 -42.89578 147.47885 297 ft 123 kts 341°
2026-05-08 05:40 -42.89112 147.47137 705 ft 87 kts 271°
2026-05-08 05:40 -42.89259 147.46383 619 ft 101 kts 270°
2026-05-08 05:40 -42.89027 147.45415 370 ft 110 kts 276°
2026-05-08 05:40 -42.88632 147.44564 276 ft 116 kts 343°
2026-05-08 05:41 -42.87970 147.44902 428 ft 102 kts 36°
2026-05-08 05:41 -42.87312 147.45173 656 ft 97 kts
2026-05-08 05:41 -42.87121 147.45824 854 ft 80 kts 144°
2026-05-08 05:41 -42.87469 147.45372 626 ft 85 kts 234°
2026-05-08 05:42 -42.87997 147.45528 502 ft 89 kts 130°
2026-05-08 05:42 -42.88276 147.46053 745 ft 61 kts 184°
2026-05-08 05:42 -42.88795 147.46155 639 ft 86 kts 147°
2026-05-08 05:42 -42.89172 147.46722 801 ft 78 kts 188°
2026-05-08 05:43 -42.89189 147.46042 489 ft 102 kts 290°
2026-05-08 05:43 -42.89496 147.45639 292 ft 87 kts 160°
2026-05-08 05:43 -42.89842 147.46211 406 ft 80 kts 117°
2026-05-08 05:43 -42.90182 147.46760 483 ft 72 kts 147°
2026-05-08 05:44 -42.90632 147.46616 214 ft 87 kts 229°
2026-05-08 05:44 -42.91110 147.46139 66 ft 86 kts 225°
2026-05-08 05:44 -42.90938 147.45581 110 ft 56 kts 22°
2026-05-08 05:44 -42.90846 147.45617 64 ft 4 kts 68°
2026-05-08 05:45 -42.90839 147.45610 65 ft 6 kts 167°
2026-05-08 05:45 -42.90980 147.45358 58 ft 65 kts 223°
2026-05-08 05:45 -42.91171 147.45884 74 ft 101 kts 86°
2026-05-08 05:45 -42.91045 147.46864 48 ft 109 kts 89°
2026-05-08 05:46 -42.90685 147.47815 97 ft 122 kts 43°
2026-05-08 05:46 -42.89939 147.47759 311 ft 111 kts 323°
2026-05-08 05:46 -42.89609 147.47063 768 ft 74 kts 254°
2026-05-08 05:46 -42.90057 147.46888 571 ft 93 kts 172°
2026-05-08 05:47 -42.90641 147.46613 210 ft 102 kts 234°
2026-05-08 05:47 -42.90992 147.45883 137 ft 78 kts 236°
2026-05-08 05:47 -42.90979 147.45625 52 ft 1 kts 334°
2026-05-08 05:47 -42.90989 147.45613 49 ft 9 kts 318°
2026-05-08 05:48 -42.90959 147.45583 70 ft 12 kts 145°
2026-05-08 05:48 -42.91241 147.45751 44 ft 69 kts 168°
2026-05-08 05:48 -42.91766 147.45953 34 ft 87 kts 173°
2026-05-08 05:48 -42.92414 147.46126 26 ft 102 kts 172°
2026-05-08 05:49 -42.93093 147.46436 119 ft 105 kts 142°
2026-05-08 05:49 -42.93380 147.47319 411 ft 98 kts 122°
2026-05-08 05:49 -42.93961 147.47819 135 ft 112 kts 156°
2026-05-08 05:49 -42.94029 147.48827 86 ft 124 kts 63°
2026-05-08 05:50 -42.93349 147.49534 126 ft 122 kts 36°
2026-05-08 05:50 -42.92929 147.50012 139 ft 114 kts 61°
2026-05-08 05:50 -42.92269 147.50414 154 ft 113 kts 347°
2026-05-08 05:50 -42.91632 147.49916 45 ft 110 kts 308°
2026-05-08 05:51 -42.90770 147.49332 82 ft 101 kts 315°
2026-05-08 05:51 -42.90509 147.48510 97 ft 101 kts 274°
2026-05-08 05:51 -42.90352 147.47900 202 ft 95 kts 304°
2026-05-08 05:51 -42.89698 147.47642 382 ft 108 kts 339°
2026-05-08 05:52 -42.88792 147.47084 714 ft 97 kts 313°
2026-05-08 05:52 -42.88384 147.46770 685 ft 104 kts 339°
2026-05-08 05:52 -42.87752 147.46410 836 ft 96 kts 315°
2026-05-08 05:52 -42.87335 147.45724 714 ft 99 kts 277°
2026-05-08 05:53 -42.87384 147.44840 738 ft 92 kts 276°
2026-05-08 05:53 -42.86823 147.44460 746 ft 105 kts 12°
2026-05-08 05:53 -42.86334 147.44282 811 ft 79 kts 269°
2026-05-08 05:53 -42.85916 147.43644 688 ft 94 kts 336°
2026-05-08 05:54 -42.85457 147.43861 978 ft 81 kts 51°
2026-05-08 05:54 -42.84880 147.43749 852 ft 89 kts 13°
2026-05-08 05:54 -42.84629 147.44524 568 ft 107 kts 79°
2026-05-08 05:54 -42.84580 147.45542 361 ft 106 kts 103°
2026-05-08 05:55 -42.84297 147.46430 255 ft 111 kts 24°
2026-05-08 05:55 -42.83772 147.46109 273 ft 87 kts 271°
2026-05-08 05:55 -42.83669 147.45352 266 ft 106 kts 332°
2026-05-08 05:55 -42.83141 147.45824 219 ft 100 kts 73°
2026-05-08 05:56 -42.82741 147.46593 161 ft 98 kts 44°
2026-05-08 05:56 -42.82598 147.47293 124 ft 54 kts 131°
2026-05-08 05:56 -42.82725 147.47392 69 ft 1 kts 152°
2026-05-08 05:56 -42.82784 147.47487 58 ft 30 kts 108°
2026-05-08 05:57 -42.82874 147.47695 67 ft 18 kts 169°
2026-05-08 05:57 -42.82955 147.47690 58 ft 5 kts 171°
2026-05-08 05:57 -42.82981 147.47689 53 ft 3 kts 182°
2026-05-08 05:57 -42.82995 147.47688 53 ft 1 kts 188°
2026-05-08 05:58 -42.82997 147.47689 50 ft 1 kts 189°